Index of /20260425/WXO-DD/model_rdps/10km/18/020
Name Last modified Size Description
Parent Directory -
20260425T18Z_MSC_RDPS_AbsoluteVorticity_IsbL-0250_RLatLon0.09_PT020H.grib2 2026-04-25 20:46 618K
20260425T18Z_MSC_RDPS_AbsoluteVorticity_IsbL-0500_RLatLon0.09_PT020H.grib2 2026-04-25 20:46 568K
20260425T18Z_MSC_RDPS_AbsoluteVorticity_IsbL-0700_RLatLon0.09_PT020H.grib2 2026-04-25 20:46 627K
20260425T18Z_MSC_RDPS_AbsoluteVorticity_IsbL-0850_RLatLon0.09_PT020H.grib2 2026-04-25 20:46 785K
20260425T18Z_MSC_RDPS_AirTemp_AGL-120m_RLatLon0.09_PT020H.grib2 2026-04-25 20:46 384K
20260425T18Z_MSC_RDPS_AirTemp_AGL-2m_RLatLon0.09_PT020H.grib2 2026-04-25 20:46 641K
20260425T18Z_MSC_RDPS_AirTemp_AGL-40m_RLatLon0.09_PT020H.grib2 2026-04-25 20:46 413K
20260425T18Z_MSC_RDPS_AirTemp_AGL-80m_RLatLon0.09_PT020H.grib2 2026-04-25 20:46 407K
20260425T18Z_MSC_RDPS_AirTemp_IsbL-0001_RLatLon0.09_PT020H.grib2 2026-04-25 20:46 313K
20260425T18Z_MSC_RDPS_AirTemp_IsbL-0005_RLatLon0.09_PT020H.grib2 2026-04-25 20:46 332K
20260425T18Z_MSC_RDPS_AirTemp_IsbL-0010_RLatLon0.09_PT020H.grib2 2026-04-25 20:46 306K
20260425T18Z_MSC_RDPS_AirTemp_IsbL-0020_RLatLon0.09_PT020H.grib2 2026-04-25 20:46 326K
20260425T18Z_MSC_RDPS_AirTemp_IsbL-0030_RLatLon0.09_PT020H.grib2 2026-04-25 20:46 347K
20260425T18Z_MSC_RDPS_AirTemp_IsbL-0050_RLatLon0.09_PT020H.grib2 2026-04-25 20:46 328K
20260425T18Z_MSC_RDPS_AirTemp_IsbL-0100_RLatLon0.09_PT020H.grib2 2026-04-25 20:46 423K
20260425T18Z_MSC_RDPS_AirTemp_IsbL-0150_RLatLon0.09_PT020H.grib2 2026-04-25 20:46 419K
20260425T18Z_MSC_RDPS_AirTemp_IsbL-0175_RLatLon0.09_PT020H.grib2 2026-04-25 20:46 412K
20260425T18Z_MSC_RDPS_AirTemp_IsbL-0200_RLatLon0.09_PT020H.grib2 2026-04-25 20:46 418K
20260425T18Z_MSC_RDPS_AirTemp_IsbL-0225_RLatLon0.09_PT020H.grib2 2026-04-25 20:46 421K
20260425T18Z_MSC_RDPS_AirTemp_IsbL-0250_RLatLon0.09_PT020H.grib2 2026-04-25 20:46 428K
20260425T18Z_MSC_RDPS_AirTemp_IsbL-0275_RLatLon0.09_PT020H.grib2 2026-04-25 20:46 406K
20260425T18Z_MSC_RDPS_AirTemp_IsbL-0300_RLatLon0.09_PT020H.grib2 2026-04-25 20:46 414K
20260425T18Z_MSC_RDPS_AirTemp_IsbL-0350_RLatLon0.09_PT020H.grib2 2026-04-25 20:46 424K
20260425T18Z_MSC_RDPS_AirTemp_IsbL-0400_RLatLon0.09_PT020H.grib2 2026-04-25 20:46 424K
20260425T18Z_MSC_RDPS_AirTemp_IsbL-0450_RLatLon0.09_PT020H.grib2 2026-04-25 20:46 430K
20260425T18Z_MSC_RDPS_AirTemp_IsbL-0500_RLatLon0.09_PT020H.grib2 2026-04-25 20:46 408K
20260425T18Z_MSC_RDPS_AirTemp_IsbL-0550_RLatLon0.09_PT020H.grib2 2026-04-25 20:46 428K
20260425T18Z_MSC_RDPS_AirTemp_IsbL-0600_RLatLon0.09_PT020H.grib2 2026-04-25 20:46 446K
20260425T18Z_MSC_RDPS_AirTemp_IsbL-0650_RLatLon0.09_PT020H.grib2 2026-04-25 20:46 459K
20260425T18Z_MSC_RDPS_AirTemp_IsbL-0700_RLatLon0.09_PT020H.grib2 2026-04-25 20:46 484K
20260425T18Z_MSC_RDPS_AirTemp_IsbL-0750_RLatLon0.09_PT020H.grib2 2026-04-25 20:46 410K
20260425T18Z_MSC_RDPS_AirTemp_IsbL-0800_RLatLon0.09_PT020H.grib2 2026-04-25 20:46 456K
20260425T18Z_MSC_RDPS_AirTemp_IsbL-0850_RLatLon0.09_PT020H.grib2 2026-04-25 20:46 505K
20260425T18Z_MSC_RDPS_AirTemp_IsbL-0875_RLatLon0.09_PT020H.grib2 2026-04-25 20:46 521K
20260425T18Z_MSC_RDPS_AirTemp_IsbL-0900_RLatLon0.09_PT020H.grib2 2026-04-25 20:46 527K
20260425T18Z_MSC_RDPS_AirTemp_IsbL-0925_RLatLon0.09_PT020H.grib2 2026-04-25 20:46 527K
20260425T18Z_MSC_RDPS_AirTemp_IsbL-0950_RLatLon0.09_PT020H.grib2 2026-04-25 20:46 529K
20260425T18Z_MSC_RDPS_AirTemp_IsbL-0970_RLatLon0.09_PT020H.grib2 2026-04-25 20:46 530K
20260425T18Z_MSC_RDPS_AirTemp_IsbL-0985_RLatLon0.09_PT020H.grib2 2026-04-25 20:46 524K
20260425T18Z_MSC_RDPS_AirTemp_IsbL-1000_RLatLon0.09_PT020H.grib2 2026-04-25 20:46 504K
20260425T18Z_MSC_RDPS_AirTemp_IsbL-1015_RLatLon0.09_PT020H.grib2 2026-04-25 20:46 497K
20260425T18Z_MSC_RDPS_Albedo_Sfc_RLatLon0.09_PT020H.grib2 2026-04-25 20:46 164K
20260425T18Z_MSC_RDPS_CAPE_Sfc_RLatLon0.09_PT020H.grib2 2026-04-25 20:46 1.7M
20260425T18Z_MSC_RDPS_CIN_Sfc_RLatLon0.09_PT020H.grib2 2026-04-25 20:46 1.1M
20260425T18Z_MSC_RDPS_CloudWater_EAtm_RLatLon0.09_PT020H.grib2 2026-04-25 20:46 217K
20260425T18Z_MSC_RDPS_ConvectivePrecip-Accum_Sfc_RLatLon0.09_PT020H.grib2 2026-04-25 20:46 846K
20260425T18Z_MSC_RDPS_DewPointDepression_AGL-2m_RLatLon0.09_PT020H.grib2 2026-04-25 20:46 409K
20260425T18Z_MSC_RDPS_DewPointDepression_IsbL-0001_RLatLon0.09_PT020H.grib2 2026-04-25 20:46 193
20260425T18Z_MSC_RDPS_DewPointDepression_IsbL-0005_RLatLon0.09_PT020H.grib2 2026-04-25 20:46 193
20260425T18Z_MSC_RDPS_DewPointDepression_IsbL-0010_RLatLon0.09_PT020H.grib2 2026-04-25 20:46 193
20260425T18Z_MSC_RDPS_DewPointDepression_IsbL-0020_RLatLon0.09_PT020H.grib2 2026-04-25 20:46 193
20260425T18Z_MSC_RDPS_DewPointDepression_IsbL-0030_RLatLon0.09_PT020H.grib2 2026-04-25 20:46 193
20260425T18Z_MSC_RDPS_DewPointDepression_IsbL-0050_RLatLon0.09_PT020H.grib2 2026-04-25 20:46 94K
20260425T18Z_MSC_RDPS_DewPointDepression_IsbL-0100_RLatLon0.09_PT020H.grib2 2026-04-25 20:46 128K
20260425T18Z_MSC_RDPS_DewPointDepression_IsbL-0150_RLatLon0.09_PT020H.grib2 2026-04-25 20:46 147K
20260425T18Z_MSC_RDPS_DewPointDepression_IsbL-0175_RLatLon0.09_PT020H.grib2 2026-04-25 20:46 184K
20260425T18Z_MSC_RDPS_DewPointDepression_IsbL-0200_RLatLon0.09_PT020H.grib2 2026-04-25 20:46 222K
20260425T18Z_MSC_RDPS_DewPointDepression_IsbL-0225_RLatLon0.09_PT020H.grib2 2026-04-25 20:46 258K
20260425T18Z_MSC_RDPS_DewPointDepression_IsbL-0250_RLatLon0.09_PT020H.grib2 2026-04-25 20:46 301K
20260425T18Z_MSC_RDPS_DewPointDepression_IsbL-0275_RLatLon0.09_PT020H.grib2 2026-04-25 20:46 312K
20260425T18Z_MSC_RDPS_DewPointDepression_IsbL-0300_RLatLon0.09_PT020H.grib2 2026-04-25 20:46 331K
20260425T18Z_MSC_RDPS_DewPointDepression_IsbL-0350_RLatLon0.09_PT020H.grib2 2026-04-25 20:46 337K
20260425T18Z_MSC_RDPS_DewPointDepression_IsbL-0400_RLatLon0.09_PT020H.grib2 2026-04-25 20:46 347K
20260425T18Z_MSC_RDPS_DewPointDepression_IsbL-0450_RLatLon0.09_PT020H.grib2 2026-04-25 20:46 354K
20260425T18Z_MSC_RDPS_DewPointDepression_IsbL-0500_RLatLon0.09_PT020H.grib2 2026-04-25 20:46 361K
20260425T18Z_MSC_RDPS_DewPointDepression_IsbL-0550_RLatLon0.09_PT020H.grib2 2026-04-25 20:46 377K
20260425T18Z_MSC_RDPS_DewPointDepression_IsbL-0600_RLatLon0.09_PT020H.grib2 2026-04-25 20:46 385K
20260425T18Z_MSC_RDPS_DewPointDepression_IsbL-0650_RLatLon0.09_PT020H.grib2 2026-04-25 20:46 384K
20260425T18Z_MSC_RDPS_DewPointDepression_IsbL-0700_RLatLon0.09_PT020H.grib2 2026-04-25 20:46 395K
20260425T18Z_MSC_RDPS_DewPointDepression_IsbL-0750_RLatLon0.09_PT020H.grib2 2026-04-25 20:46 418K
20260425T18Z_MSC_RDPS_DewPointDepression_IsbL-0800_RLatLon0.09_PT020H.grib2 2026-04-25 20:46 449K
20260425T18Z_MSC_RDPS_DewPointDepression_IsbL-0850_RLatLon0.09_PT020H.grib2 2026-04-25 20:46 475K
20260425T18Z_MSC_RDPS_DewPointDepression_IsbL-0875_RLatLon0.09_PT020H.grib2 2026-04-25 20:46 476K
20260425T18Z_MSC_RDPS_DewPointDepression_IsbL-0900_RLatLon0.09_PT020H.grib2 2026-04-25 20:46 465K
20260425T18Z_MSC_RDPS_DewPointDepression_IsbL-0925_RLatLon0.09_PT020H.grib2 2026-04-25 20:46 454K
20260425T18Z_MSC_RDPS_DewPointDepression_IsbL-0950_RLatLon0.09_PT020H.grib2 2026-04-25 20:46 447K
20260425T18Z_MSC_RDPS_DewPointDepression_IsbL-0970_RLatLon0.09_PT020H.grib2 2026-04-25 20:46 441K
20260425T18Z_MSC_RDPS_DewPointDepression_IsbL-0985_RLatLon0.09_PT020H.grib2 2026-04-25 20:46 439K
20260425T18Z_MSC_RDPS_DewPointDepression_IsbL-1000_RLatLon0.09_PT020H.grib2 2026-04-25 20:46 434K
20260425T18Z_MSC_RDPS_DewPointDepression_IsbL-1015_RLatLon0.09_PT020H.grib2 2026-04-25 20:46 426K
20260425T18Z_MSC_RDPS_DewPoint_AGL-2m_RLatLon0.09_PT020H.grib2 2026-04-25 20:46 403K
20260425T18Z_MSC_RDPS_DownwardLongwaveRadiationFlux-Accum_Sfc_RLatLon0.09_PT020H.grib2 2026-04-25 20:46 422K
20260425T18Z_MSC_RDPS_DownwardShortwaveRadiationFlux-Accum_NTAtm_RLatLon0.09_PT020H.grib2 2026-04-25 20:46 147K
20260425T18Z_MSC_RDPS_DownwardShortwaveRadiationFlux-Accum_Sfc_RLatLon0.09_PT020H.grib2 2026-04-25 20:46 592K
20260425T18Z_MSC_RDPS_FreezingRain-Accum1h_Sfc_RLatLon0.09_PT020H.grib2 2026-04-25 20:46 52K
20260425T18Z_MSC_RDPS_FreezingRain-Accum_Sfc_RLatLon0.09_PT020H.grib2 2026-04-25 20:46 111K
20260425T18Z_MSC_RDPS_GeopotentialHeight_IsbL-0001_RLatLon0.09_PT020H.grib2 2026-04-25 20:46 275K
20260425T18Z_MSC_RDPS_GeopotentialHeight_IsbL-0005_RLatLon0.09_PT020H.grib2 2026-04-25 20:46 311K
20260425T18Z_MSC_RDPS_GeopotentialHeight_IsbL-0010_RLatLon0.09_PT020H.grib2 2026-04-25 20:46 341K
20260425T18Z_MSC_RDPS_GeopotentialHeight_IsbL-0020_RLatLon0.09_PT020H.grib2 2026-04-25 20:46 308K
20260425T18Z_MSC_RDPS_GeopotentialHeight_IsbL-0030_RLatLon0.09_PT020H.grib2 2026-04-25 20:46 408K
20260425T18Z_MSC_RDPS_GeopotentialHeight_IsbL-0050_RLatLon0.09_PT020H.grib2 2026-04-25 20:46 312K
20260425T18Z_MSC_RDPS_GeopotentialHeight_IsbL-0100_RLatLon0.09_PT020H.grib2 2026-04-25 20:46 287K
20260425T18Z_MSC_RDPS_GeopotentialHeight_IsbL-0150_RLatLon0.09_PT020H.grib2 2026-04-25 20:46 227K
20260425T18Z_MSC_RDPS_GeopotentialHeight_IsbL-0175_RLatLon0.09_PT020H.grib2 2026-04-25 20:46 230K
20260425T18Z_MSC_RDPS_GeopotentialHeight_IsbL-0200_RLatLon0.09_PT020H.grib2 2026-04-25 20:46 264K
20260425T18Z_MSC_RDPS_GeopotentialHeight_IsbL-0225_RLatLon0.09_PT020H.grib2 2026-04-25 20:46 265K
20260425T18Z_MSC_RDPS_GeopotentialHeight_IsbL-0250_RLatLon0.09_PT020H.grib2 2026-04-25 20:46 267K
20260425T18Z_MSC_RDPS_GeopotentialHeight_IsbL-0275_RLatLon0.09_PT020H.grib2 2026-04-25 20:46 266K
20260425T18Z_MSC_RDPS_GeopotentialHeight_IsbL-0300_RLatLon0.09_PT020H.grib2 2026-04-25 20:46 234K
20260425T18Z_MSC_RDPS_GeopotentialHeight_IsbL-0350_RLatLon0.09_PT020H.grib2 2026-04-25 20:46 231K
20260425T18Z_MSC_RDPS_GeopotentialHeight_IsbL-0400_RLatLon0.09_PT020H.grib2 2026-04-25 20:46 228K
20260425T18Z_MSC_RDPS_GeopotentialHeight_IsbL-0450_RLatLon0.09_PT020H.grib2 2026-04-25 20:46 297K
20260425T18Z_MSC_RDPS_GeopotentialHeight_IsbL-0500_RLatLon0.09_PT020H.grib2 2026-04-25 20:46 292K
20260425T18Z_MSC_RDPS_GeopotentialHeight_IsbL-0550_RLatLon0.09_PT020H.grib2 2026-04-25 20:46 288K
20260425T18Z_MSC_RDPS_GeopotentialHeight_IsbL-0600_RLatLon0.09_PT020H.grib2 2026-04-25 20:46 284K
20260425T18Z_MSC_RDPS_GeopotentialHeight_IsbL-0650_RLatLon0.09_PT020H.grib2 2026-04-25 20:46 282K
20260425T18Z_MSC_RDPS_GeopotentialHeight_IsbL-0700_RLatLon0.09_PT020H.grib2 2026-04-25 20:46 280K
20260425T18Z_MSC_RDPS_GeopotentialHeight_IsbL-0750_RLatLon0.09_PT020H.grib2 2026-04-25 20:46 278K
20260425T18Z_MSC_RDPS_GeopotentialHeight_IsbL-0800_RLatLon0.09_PT020H.grib2 2026-04-25 20:46 259K
20260425T18Z_MSC_RDPS_GeopotentialHeight_IsbL-0850_RLatLon0.09_PT020H.grib2 2026-04-25 20:46 266K
20260425T18Z_MSC_RDPS_GeopotentialHeight_IsbL-0875_RLatLon0.09_PT020H.grib2 2026-04-25 20:46 269K
20260425T18Z_MSC_RDPS_GeopotentialHeight_IsbL-0900_RLatLon0.09_PT020H.grib2 2026-04-25 20:46 273K
20260425T18Z_MSC_RDPS_GeopotentialHeight_IsbL-0925_RLatLon0.09_PT020H.grib2 2026-04-25 20:46 276K
20260425T18Z_MSC_RDPS_GeopotentialHeight_IsbL-0950_RLatLon0.09_PT020H.grib2 2026-04-25 20:46 305K
20260425T18Z_MSC_RDPS_GeopotentialHeight_IsbL-0970_RLatLon0.09_PT020H.grib2 2026-04-25 20:46 310K
20260425T18Z_MSC_RDPS_GeopotentialHeight_IsbL-0985_RLatLon0.09_PT020H.grib2 2026-04-25 20:46 317K
20260425T18Z_MSC_RDPS_GeopotentialHeight_IsbL-1000_RLatLon0.09_PT020H.grib2 2026-04-25 20:46 326K
20260425T18Z_MSC_RDPS_GeopotentialHeight_IsbL-1015_RLatLon0.09_PT020H.grib2 2026-04-25 20:46 337K
20260425T18Z_MSC_RDPS_Humidex_Sfc_RLatLon0.09_PT020H.grib2 2026-04-25 20:46 2.4M
20260425T18Z_MSC_RDPS_IcePellets-Accum1h_Sfc_RLatLon0.09_PT020H.grib2 2026-04-25 20:46 17K
20260425T18Z_MSC_RDPS_IcePellets-Accum_Sfc_RLatLon0.09_PT020H.grib2 2026-04-25 20:46 41K
20260425T18Z_MSC_RDPS_KIndex_Sfc_RLatLon0.09_PT020H.grib2 2026-04-25 20:46 2.4M
20260425T18Z_MSC_RDPS_LatentHeatNetFlux_Sfc_RLatLon0.09_PT020H.grib2 2026-04-25 20:46 359K
20260425T18Z_MSC_RDPS_LiftedIndex-MU-VT_IsbL-0500_RLatLon0.09_PT020H.grib2 2026-04-25 20:46 2.4M
20260425T18Z_MSC_RDPS_NetLongwaveRadiationFlux-Accum_Sfc_RLatLon0.09_PT020H.grib2 2026-04-25 20:46 555K
20260425T18Z_MSC_RDPS_NetShortwaveRadiationFlux-Accum_Sfc_RLatLon0.09_PT020H.grib2 2026-04-25 20:46 589K
20260425T18Z_MSC_RDPS_PlanetaryBoundaryLayerHeight_Sfc_RLatLon0.09_PT020H.grib2 2026-04-25 20:46 1.2M
20260425T18Z_MSC_RDPS_Precip-Accum1h_Sfc_RLatLon0.09_PT020H.grib2 2026-04-25 20:46 1.3M
20260425T18Z_MSC_RDPS_Precip-Accum_Sfc_RLatLon0.09_PT020H.grib2 2026-04-25 20:46 1.8M
20260425T18Z_MSC_RDPS_PrecipRate_Sfc_RLatLon0.09_PT020H.grib2 2026-04-25 20:46 178K
20260425T18Z_MSC_RDPS_PrecipType-Instant_Sfc_RLatLon0.09_PT020H.grib2 2026-04-25 20:46 603K
20260425T18Z_MSC_RDPS_Pressure-Trend3h_Sfc_RLatLon0.09_PT020H.grib2 2026-04-25 20:46 1.2M
20260425T18Z_MSC_RDPS_Pressure_MSL_RLatLon0.09_PT020H.grib2 2026-04-25 20:46 237K
20260425T18Z_MSC_RDPS_Pressure_PVU-1.5_RLatLon0.09_PT020H.grib2 2026-04-25 20:46 2.5M
20260425T18Z_MSC_RDPS_Pressure_PVU-1_RLatLon0.09_PT020H.grib2 2026-04-25 20:46 2.4M
20260425T18Z_MSC_RDPS_Pressure_PVU-2_RLatLon0.09_PT020H.grib2 2026-04-25 20:46 2.4M
20260425T18Z_MSC_RDPS_Pressure_Sfc_RLatLon0.09_PT020H.grib2 2026-04-25 20:46 499K
20260425T18Z_MSC_RDPS_RadiativeTemp_Sfc_RLatLon0.09_PT020H.grib2 2026-04-25 20:46 310K
20260425T18Z_MSC_RDPS_Rain-Accum1h_Sfc_RLatLon0.09_PT020H.grib2 2026-04-25 20:46 541K
20260425T18Z_MSC_RDPS_Rain-Accum_Sfc_RLatLon0.09_PT020H.grib2 2026-04-25 20:46 1.3M
20260425T18Z_MSC_RDPS_RelativeHumidity_AGL-2m_RLatLon0.09_PT020H.grib2 2026-04-25 20:46 1.0M
20260425T18Z_MSC_RDPS_RelativeHumidity_IsbL-0010_RLatLon0.09_PT020H.grib2 2026-04-25 20:46 637K
20260425T18Z_MSC_RDPS_RelativeHumidity_IsbL-0020_RLatLon0.09_PT020H.grib2 2026-04-25 20:46 661K
20260425T18Z_MSC_RDPS_RelativeHumidity_IsbL-0030_RLatLon0.09_PT020H.grib2 2026-04-25 20:46 549K
20260425T18Z_MSC_RDPS_RelativeHumidity_IsbL-0050_RLatLon0.09_PT020H.grib2 2026-04-25 20:46 333K
20260425T18Z_MSC_RDPS_RelativeHumidity_IsbL-0100_RLatLon0.09_PT020H.grib2 2026-04-25 20:46 276K
20260425T18Z_MSC_RDPS_RelativeHumidity_IsbL-0150_RLatLon0.09_PT020H.grib2 2026-04-25 20:46 404K
20260425T18Z_MSC_RDPS_RelativeHumidity_IsbL-0175_RLatLon0.09_PT020H.grib2 2026-04-25 20:46 476K
20260425T18Z_MSC_RDPS_RelativeHumidity_IsbL-0200_RLatLon0.09_PT020H.grib2 2026-04-25 20:46 556K
20260425T18Z_MSC_RDPS_RelativeHumidity_IsbL-0225_RLatLon0.09_PT020H.grib2 2026-04-25 20:46 629K
20260425T18Z_MSC_RDPS_RelativeHumidity_IsbL-0250_RLatLon0.09_PT020H.grib2 2026-04-25 20:46 704K
20260425T18Z_MSC_RDPS_RelativeHumidity_IsbL-0275_RLatLon0.09_PT020H.grib2 2026-04-25 20:46 731K
20260425T18Z_MSC_RDPS_RelativeHumidity_IsbL-0300_RLatLon0.09_PT020H.grib2 2026-04-25 20:46 775K
20260425T18Z_MSC_RDPS_RelativeHumidity_IsbL-0350_RLatLon0.09_PT020H.grib2 2026-04-25 20:46 797K
20260425T18Z_MSC_RDPS_RelativeHumidity_IsbL-0400_RLatLon0.09_PT020H.grib2 2026-04-25 20:46 806K
20260425T18Z_MSC_RDPS_RelativeHumidity_IsbL-0450_RLatLon0.09_PT020H.grib2 2026-04-25 20:46 811K
20260425T18Z_MSC_RDPS_RelativeHumidity_IsbL-0500_RLatLon0.09_PT020H.grib2 2026-04-25 20:46 822K
20260425T18Z_MSC_RDPS_RelativeHumidity_IsbL-0550_RLatLon0.09_PT020H.grib2 2026-04-25 20:46 843K
20260425T18Z_MSC_RDPS_RelativeHumidity_IsbL-0600_RLatLon0.09_PT020H.grib2 2026-04-25 20:46 872K
20260425T18Z_MSC_RDPS_RelativeHumidity_IsbL-0650_RLatLon0.09_PT020H.grib2 2026-04-25 20:46 878K
20260425T18Z_MSC_RDPS_RelativeHumidity_IsbL-0700_RLatLon0.09_PT020H.grib2 2026-04-25 20:46 902K
20260425T18Z_MSC_RDPS_RelativeHumidity_IsbL-0750_RLatLon0.09_PT020H.grib2 2026-04-25 20:46 947K
20260425T18Z_MSC_RDPS_RelativeHumidity_IsbL-0800_RLatLon0.09_PT020H.grib2 2026-04-25 20:46 1.0M
20260425T18Z_MSC_RDPS_RelativeHumidity_IsbL-0850_RLatLon0.09_PT020H.grib2 2026-04-25 20:46 1.1M
20260425T18Z_MSC_RDPS_RelativeHumidity_IsbL-0875_RLatLon0.09_PT020H.grib2 2026-04-25 20:46 1.1M
20260425T18Z_MSC_RDPS_RelativeHumidity_IsbL-0900_RLatLon0.09_PT020H.grib2 2026-04-25 20:46 1.1M
20260425T18Z_MSC_RDPS_RelativeHumidity_IsbL-0925_RLatLon0.09_PT020H.grib2 2026-04-25 20:46 1.1M
20260425T18Z_MSC_RDPS_RelativeHumidity_IsbL-0950_RLatLon0.09_PT020H.grib2 2026-04-25 20:46 1.1M
20260425T18Z_MSC_RDPS_RelativeHumidity_IsbL-0970_RLatLon0.09_PT020H.grib2 2026-04-25 20:46 1.1M
20260425T18Z_MSC_RDPS_RelativeHumidity_IsbL-0985_RLatLon0.09_PT020H.grib2 2026-04-25 20:46 1.1M
20260425T18Z_MSC_RDPS_RelativeHumidity_IsbL-1000_RLatLon0.09_PT020H.grib2 2026-04-25 20:46 1.0M
20260425T18Z_MSC_RDPS_RelativeHumidity_IsbL-1015_RLatLon0.09_PT020H.grib2 2026-04-25 20:46 1.0M
20260425T18Z_MSC_RDPS_Runoff-Accum_Sfc_RLatLon0.09_PT020H.grib2 2026-04-25 20:46 63K
20260425T18Z_MSC_RDPS_SWEATIndex_Sfc_RLatLon0.09_PT020H.grib2 2026-04-25 20:46 2.4M
20260425T18Z_MSC_RDPS_SeeingIndex_EAtm_RLatLon0.09_PT020H.grib2 2026-04-25 20:46 1.0M
20260425T18Z_MSC_RDPS_SensibleHeatNetFlux_Sfc_RLatLon0.09_PT020H.grib2 2026-04-25 20:46 337K
20260425T18Z_MSC_RDPS_ShowalterIndex_IsbL-0500_RLatLon0.09_PT020H.grib2 2026-04-25 20:46 2.6M
20260425T18Z_MSC_RDPS_SkyTransparencyIndex_EAtm_RLatLon0.09_PT020H.grib2 2026-04-25 20:46 731K
20260425T18Z_MSC_RDPS_Snow-Accum1h_Sfc_RLatLon0.09_PT020H.grib2 2026-04-25 20:46 513K
20260425T18Z_MSC_RDPS_Snow-Accum_Sfc_RLatLon0.09_PT020H.grib2 2026-04-25 20:46 774K
20260425T18Z_MSC_RDPS_SnowDensity_Sfc_RLatLon0.09_PT020H.grib2 2026-04-25 20:46 182K
20260425T18Z_MSC_RDPS_SnowDepth_Sfc_RLatLon0.09_PT020H.grib2 2026-04-25 20:46 736K
20260425T18Z_MSC_RDPS_SoilTemp_DBS-0to10cm_RLatLon0.09_PT020H.grib2 2026-04-25 20:46 215K
20260425T18Z_MSC_RDPS_SoilTemp_Sfc_RLatLon0.09_PT020H.grib2 2026-04-25 20:46 280K
20260425T18Z_MSC_RDPS_SoilVolumetricIceContent_Sfc_RLatLon0.09_PT020H.grib2 2026-04-25 20:46 170K
20260425T18Z_MSC_RDPS_SoilVolumetricWaterContent_DBS-0to10cm_RLatLon0.09_PT020H.grib2 2026-04-25 20:46 256K
20260425T18Z_MSC_RDPS_SoilVolumetricWaterContent_DBS-0to1cm_RLatLon0.09_PT020H.grib2 2026-04-25 20:46 338K
20260425T18Z_MSC_RDPS_SpecificHumidity_AGL-120m_RLatLon0.09_PT020H.grib2 2026-04-25 20:46 493K
20260425T18Z_MSC_RDPS_SpecificHumidity_AGL-2m_RLatLon0.09_PT020H.grib2 2026-04-25 20:46 660K
20260425T18Z_MSC_RDPS_SpecificHumidity_AGL-40m_RLatLon0.09_PT020H.grib2 2026-04-25 20:46 497K
20260425T18Z_MSC_RDPS_SpecificHumidity_AGL-80m_RLatLon0.09_PT020H.grib2 2026-04-25 20:46 494K
20260425T18Z_MSC_RDPS_SpecificHumidity_IsbL-0001_RLatLon0.09_PT020H.grib2 2026-04-25 20:46 343K
20260425T18Z_MSC_RDPS_SpecificHumidity_IsbL-0005_RLatLon0.09_PT020H.grib2 2026-04-25 20:46 355K
20260425T18Z_MSC_RDPS_SpecificHumidity_IsbL-0010_RLatLon0.09_PT020H.grib2 2026-04-25 20:46 400K
20260425T18Z_MSC_RDPS_SpecificHumidity_IsbL-0020_RLatLon0.09_PT020H.grib2 2026-04-25 20:46 391K
20260425T18Z_MSC_RDPS_SpecificHumidity_IsbL-0030_RLatLon0.09_PT020H.grib2 2026-04-25 20:46 484K
20260425T18Z_MSC_RDPS_SpecificHumidity_IsbL-0050_RLatLon0.09_PT020H.grib2 2026-04-25 20:46 481K
20260425T18Z_MSC_RDPS_SpecificHumidity_IsbL-0100_RLatLon0.09_PT020H.grib2 2026-04-25 20:46 428K
20260425T18Z_MSC_RDPS_SpecificHumidity_IsbL-0150_RLatLon0.09_PT020H.grib2 2026-04-25 20:46 481K
20260425T18Z_MSC_RDPS_SpecificHumidity_IsbL-0175_RLatLon0.09_PT020H.grib2 2026-04-25 20:46 542K
20260425T18Z_MSC_RDPS_SpecificHumidity_IsbL-0200_RLatLon0.09_PT020H.grib2 2026-04-25 20:46 557K
20260425T18Z_MSC_RDPS_SpecificHumidity_IsbL-0225_RLatLon0.09_PT020H.grib2 2026-04-25 20:46 562K
20260425T18Z_MSC_RDPS_SpecificHumidity_IsbL-0250_RLatLon0.09_PT020H.grib2 2026-04-25 20:46 565K
20260425T18Z_MSC_RDPS_SpecificHumidity_IsbL-0275_RLatLon0.09_PT020H.grib2 2026-04-25 20:46 480K
20260425T18Z_MSC_RDPS_SpecificHumidity_IsbL-0300_RLatLon0.09_PT020H.grib2 2026-04-25 20:46 553K
20260425T18Z_MSC_RDPS_SpecificHumidity_IsbL-0350_RLatLon0.09_PT020H.grib2 2026-04-25 20:46 543K
20260425T18Z_MSC_RDPS_SpecificHumidity_IsbL-0400_RLatLon0.09_PT020H.grib2 2026-04-25 20:46 521K
20260425T18Z_MSC_RDPS_SpecificHumidity_IsbL-0450_RLatLon0.09_PT020H.grib2 2026-04-25 20:46 572K
20260425T18Z_MSC_RDPS_SpecificHumidity_IsbL-0500_RLatLon0.09_PT020H.grib2 2026-04-25 20:46 511K
20260425T18Z_MSC_RDPS_SpecificHumidity_IsbL-0550_RLatLon0.09_PT020H.grib2 2026-04-25 20:46 569K
20260425T18Z_MSC_RDPS_SpecificHumidity_IsbL-0600_RLatLon0.09_PT020H.grib2 2026-04-25 20:46 635K
20260425T18Z_MSC_RDPS_SpecificHumidity_IsbL-0650_RLatLon0.09_PT020H.grib2 2026-04-25 20:46 547K
20260425T18Z_MSC_RDPS_SpecificHumidity_IsbL-0700_RLatLon0.09_PT020H.grib2 2026-04-25 20:46 589K
20260425T18Z_MSC_RDPS_SpecificHumidity_IsbL-0750_RLatLon0.09_PT020H.grib2 2026-04-25 20:46 647K
20260425T18Z_MSC_RDPS_SpecificHumidity_IsbL-0800_RLatLon0.09_PT020H.grib2 2026-04-25 20:46 721K
20260425T18Z_MSC_RDPS_SpecificHumidity_IsbL-0850_RLatLon0.09_PT020H.grib2 2026-04-25 20:46 803K
20260425T18Z_MSC_RDPS_SpecificHumidity_IsbL-0875_RLatLon0.09_PT020H.grib2 2026-04-25 20:46 827K
20260425T18Z_MSC_RDPS_SpecificHumidity_IsbL-0900_RLatLon0.09_PT020H.grib2 2026-04-25 20:46 835K
20260425T18Z_MSC_RDPS_SpecificHumidity_IsbL-0925_RLatLon0.09_PT020H.grib2 2026-04-25 20:46 835K
20260425T18Z_MSC_RDPS_SpecificHumidity_IsbL-0950_RLatLon0.09_PT020H.grib2 2026-04-25 20:46 833K
20260425T18Z_MSC_RDPS_SpecificHumidity_IsbL-0970_RLatLon0.09_PT020H.grib2 2026-04-25 20:46 687K
20260425T18Z_MSC_RDPS_SpecificHumidity_IsbL-0985_RLatLon0.09_PT020H.grib2 2026-04-25 20:46 683K
20260425T18Z_MSC_RDPS_SpecificHumidity_IsbL-1000_RLatLon0.09_PT020H.grib2 2026-04-25 20:46 677K
20260425T18Z_MSC_RDPS_SpecificHumidity_IsbL-1015_RLatLon0.09_PT020H.grib2 2026-04-25 20:46 668K
20260425T18Z_MSC_RDPS_SpecificHumidity_Sfc_RLatLon0.09_PT020H.grib2 2026-04-25 20:46 302K
20260425T18Z_MSC_RDPS_StormRelativeHelicity_EtaL-10000_RLatLon0.09_PT020H.grib2 2026-04-25 20:46 1.1M
20260425T18Z_MSC_RDPS_StormSeverityIndex_EtaL-10000_RLatLon0.09_PT020H.grib2 2026-04-25 20:46 1.2M
20260425T18Z_MSC_RDPS_Thickness_IsbL-0850to0700_RLatLon0.09_PT020H.grib2 2026-04-25 20:46 175K
20260425T18Z_MSC_RDPS_Thickness_IsbL-1000to0500_RLatLon0.09_PT020H.grib2 2026-04-25 20:46 202K
20260425T18Z_MSC_RDPS_Thickness_IsbL-1000to0850_RLatLon0.09_PT020H.grib2 2026-04-25 20:46 186K
20260425T18Z_MSC_RDPS_TotalCloudCover_Sfc_RLatLon0.09_PT020H.grib2 2026-04-25 20:46 689K
20260425T18Z_MSC_RDPS_TotalTotalsIndex_Sfc_RLatLon0.09_PT020H.grib2 2026-04-25 20:46 2.4M
20260425T18Z_MSC_RDPS_UVIndex-ClearSky_Sfc_RLatLon0.09_PT020H.grib2 2026-04-25 20:46 206K
20260425T18Z_MSC_RDPS_UVIndex_Sfc_RLatLon0.09_PT020H.grib2 2026-04-25 20:46 450K
20260425T18Z_MSC_RDPS_UpwardLongwaveRadiationFlux_NTAtm_RLatLon0.09_PT020H.grib2 2026-04-25 20:46 491K
20260425T18Z_MSC_RDPS_UpwardShortwaveRadiationFlux_NTAtm_RLatLon0.09_PT020H.grib2 2026-04-25 20:46 409K
20260425T18Z_MSC_RDPS_VerticalVelocity_IsbL-0250_RLatLon0.09_PT020H.grib2 2026-04-25 20:46 578K
20260425T18Z_MSC_RDPS_VerticalVelocity_IsbL-0500_RLatLon0.09_PT020H.grib2 2026-04-25 20:46 540K
20260425T18Z_MSC_RDPS_VerticalVelocity_IsbL-0700_RLatLon0.09_PT020H.grib2 2026-04-25 20:46 590K
20260425T18Z_MSC_RDPS_VerticalVelocity_IsbL-0850_RLatLon0.09_PT020H.grib2 2026-04-25 20:46 694K
20260425T18Z_MSC_RDPS_VerticalWindShear_EtaL-6500_RLatLon0.09_PT020H.grib2 2026-04-25 20:46 1.2M
20260425T18Z_MSC_RDPS_WindChill_Sfc_RLatLon0.09_PT020H.grib2 2026-04-25 20:46 1.3M
20260425T18Z_MSC_RDPS_WindDir_AGL-10m_RLatLon0.09_PT020H.grib2 2026-04-25 20:46 1.0M
20260425T18Z_MSC_RDPS_WindDir_AGL-120m_RLatLon0.09_PT020H.grib2 2026-04-25 20:46 631K
20260425T18Z_MSC_RDPS_WindDir_AGL-40m_RLatLon0.09_PT020H.grib2 2026-04-25 20:46 658K
20260425T18Z_MSC_RDPS_WindDir_AGL-80m_RLatLon0.09_PT020H.grib2 2026-04-25 20:46 642K
20260425T18Z_MSC_RDPS_WindDir_IsbL-0001_RLatLon0.09_PT020H.grib2 2026-04-25 20:46 289K
20260425T18Z_MSC_RDPS_WindDir_IsbL-0005_RLatLon0.09_PT020H.grib2 2026-04-25 20:46 363K
20260425T18Z_MSC_RDPS_WindDir_IsbL-0010_RLatLon0.09_PT020H.grib2 2026-04-25 20:46 387K
20260425T18Z_MSC_RDPS_WindDir_IsbL-0020_RLatLon0.09_PT020H.grib2 2026-04-25 20:46 411K
20260425T18Z_MSC_RDPS_WindDir_IsbL-0030_RLatLon0.09_PT020H.grib2 2026-04-25 20:46 434K
20260425T18Z_MSC_RDPS_WindDir_IsbL-0050_RLatLon0.09_PT020H.grib2 2026-04-25 20:46 452K
20260425T18Z_MSC_RDPS_WindDir_IsbL-0100_RLatLon0.09_PT020H.grib2 2026-04-25 20:46 426K
20260425T18Z_MSC_RDPS_WindDir_IsbL-0150_RLatLon0.09_PT020H.grib2 2026-04-25 20:46 421K
20260425T18Z_MSC_RDPS_WindDir_IsbL-0175_RLatLon0.09_PT020H.grib2 2026-04-25 20:46 438K
20260425T18Z_MSC_RDPS_WindDir_IsbL-0200_RLatLon0.09_PT020H.grib2 2026-04-25 20:46 444K
20260425T18Z_MSC_RDPS_WindDir_IsbL-0225_RLatLon0.09_PT020H.grib2 2026-04-25 20:46 449K
20260425T18Z_MSC_RDPS_WindDir_IsbL-0250_RLatLon0.09_PT020H.grib2 2026-04-25 20:46 451K
20260425T18Z_MSC_RDPS_WindDir_IsbL-0275_RLatLon0.09_PT020H.grib2 2026-04-25 20:46 478K
20260425T18Z_MSC_RDPS_WindDir_IsbL-0300_RLatLon0.09_PT020H.grib2 2026-04-25 20:46 481K
20260425T18Z_MSC_RDPS_WindDir_IsbL-0350_RLatLon0.09_PT020H.grib2 2026-04-25 20:46 503K
20260425T18Z_MSC_RDPS_WindDir_IsbL-0400_RLatLon0.09_PT020H.grib2 2026-04-25 20:46 514K
20260425T18Z_MSC_RDPS_WindDir_IsbL-0450_RLatLon0.09_PT020H.grib2 2026-04-25 20:46 524K
20260425T18Z_MSC_RDPS_WindDir_IsbL-0500_RLatLon0.09_PT020H.grib2 2026-04-25 20:46 541K
20260425T18Z_MSC_RDPS_WindDir_IsbL-0550_RLatLon0.09_PT020H.grib2 2026-04-25 20:46 562K
20260425T18Z_MSC_RDPS_WindDir_IsbL-0600_RLatLon0.09_PT020H.grib2 2026-04-25 20:46 591K
20260425T18Z_MSC_RDPS_WindDir_IsbL-0650_RLatLon0.09_PT020H.grib2 2026-04-25 20:46 637K
20260425T18Z_MSC_RDPS_WindDir_IsbL-0700_RLatLon0.09_PT020H.grib2 2026-04-25 20:46 680K
20260425T18Z_MSC_RDPS_WindDir_IsbL-0750_RLatLon0.09_PT020H.grib2 2026-04-25 20:46 738K
20260425T18Z_MSC_RDPS_WindDir_IsbL-0800_RLatLon0.09_PT020H.grib2 2026-04-25 20:46 815K
20260425T18Z_MSC_RDPS_WindDir_IsbL-0850_RLatLon0.09_PT020H.grib2 2026-04-25 20:46 890K
20260425T18Z_MSC_RDPS_WindDir_IsbL-0875_RLatLon0.09_PT020H.grib2 2026-04-25 20:46 911K
20260425T18Z_MSC_RDPS_WindDir_IsbL-0900_RLatLon0.09_PT020H.grib2 2026-04-25 20:46 926K
20260425T18Z_MSC_RDPS_WindDir_IsbL-0925_RLatLon0.09_PT020H.grib2 2026-04-25 20:46 931K
20260425T18Z_MSC_RDPS_WindDir_IsbL-0950_RLatLon0.09_PT020H.grib2 2026-04-25 20:46 931K
20260425T18Z_MSC_RDPS_WindDir_IsbL-0970_RLatLon0.09_PT020H.grib2 2026-04-25 20:46 937K
20260425T18Z_MSC_RDPS_WindDir_IsbL-0985_RLatLon0.09_PT020H.grib2 2026-04-25 20:46 951K
20260425T18Z_MSC_RDPS_WindDir_IsbL-1000_RLatLon0.09_PT020H.grib2 2026-04-25 20:46 970K
20260425T18Z_MSC_RDPS_WindDir_IsbL-1015_RLatLon0.09_PT020H.grib2 2026-04-25 20:46 1.0M
20260425T18Z_MSC_RDPS_WindGust-Max_AGL-10m_RLatLon0.09_PT020H.grib2 2026-04-25 20:46 1.0M
20260425T18Z_MSC_RDPS_WindGust-Min_AGL-10m_RLatLon0.09_PT020H.grib2 2026-04-25 20:46 1.0M
20260425T18Z_MSC_RDPS_WindGust_AGL-10m_RLatLon0.09_PT020H.grib2 2026-04-25 20:46 1.0M
20260425T18Z_MSC_RDPS_WindSpeed_AGL-10m_RLatLon0.09_PT020H.grib2 2026-04-25 20:46 854K
20260425T18Z_MSC_RDPS_WindSpeed_AGL-120m_RLatLon0.09_PT020H.grib2 2026-04-25 20:46 548K
20260425T18Z_MSC_RDPS_WindSpeed_AGL-40m_RLatLon0.09_PT020H.grib2 2026-04-25 20:46 549K
20260425T18Z_MSC_RDPS_WindSpeed_AGL-80m_RLatLon0.09_PT020H.grib2 2026-04-25 20:46 548K
20260425T18Z_MSC_RDPS_WindSpeed_IsbL-0001_RLatLon0.09_PT020H.grib2 2026-04-25 20:46 250K
20260425T18Z_MSC_RDPS_WindSpeed_IsbL-0005_RLatLon0.09_PT020H.grib2 2026-04-25 20:46 300K
20260425T18Z_MSC_RDPS_WindSpeed_IsbL-0010_RLatLon0.09_PT020H.grib2 2026-04-25 20:46 314K
20260425T18Z_MSC_RDPS_WindSpeed_IsbL-0020_RLatLon0.09_PT020H.grib2 2026-04-25 20:46 333K
20260425T18Z_MSC_RDPS_WindSpeed_IsbL-0030_RLatLon0.09_PT020H.grib2 2026-04-25 20:46 334K
20260425T18Z_MSC_RDPS_WindSpeed_IsbL-0050_RLatLon0.09_PT020H.grib2 2026-04-25 20:46 477K
20260425T18Z_MSC_RDPS_WindSpeed_IsbL-0100_RLatLon0.09_PT020H.grib2 2026-04-25 20:46 438K
20260425T18Z_MSC_RDPS_WindSpeed_IsbL-0150_RLatLon0.09_PT020H.grib2 2026-04-25 20:46 378K
20260425T18Z_MSC_RDPS_WindSpeed_IsbL-0175_RLatLon0.09_PT020H.grib2 2026-04-25 20:46 425K
20260425T18Z_MSC_RDPS_WindSpeed_IsbL-0200_RLatLon0.09_PT020H.grib2 2026-04-25 20:46 443K
20260425T18Z_MSC_RDPS_WindSpeed_IsbL-0225_RLatLon0.09_PT020H.grib2 2026-04-25 20:46 450K
20260425T18Z_MSC_RDPS_WindSpeed_IsbL-0250_RLatLon0.09_PT020H.grib2 2026-04-25 20:46 454K
20260425T18Z_MSC_RDPS_WindSpeed_IsbL-0275_RLatLon0.09_PT020H.grib2 2026-04-25 20:46 474K
20260425T18Z_MSC_RDPS_WindSpeed_IsbL-0300_RLatLon0.09_PT020H.grib2 2026-04-25 20:46 471K
20260425T18Z_MSC_RDPS_WindSpeed_IsbL-0350_RLatLon0.09_PT020H.grib2 2026-04-25 20:46 482K
20260425T18Z_MSC_RDPS_WindSpeed_IsbL-0400_RLatLon0.09_PT020H.grib2 2026-04-25 20:46 464K
20260425T18Z_MSC_RDPS_WindSpeed_IsbL-0450_RLatLon0.09_PT020H.grib2 2026-04-25 20:46 462K
20260425T18Z_MSC_RDPS_WindSpeed_IsbL-0500_RLatLon0.09_PT020H.grib2 2026-04-25 20:46 462K
20260425T18Z_MSC_RDPS_WindSpeed_IsbL-0550_RLatLon0.09_PT020H.grib2 2026-04-25 20:46 581K
20260425T18Z_MSC_RDPS_WindSpeed_IsbL-0600_RLatLon0.09_PT020H.grib2 2026-04-25 20:46 594K
20260425T18Z_MSC_RDPS_WindSpeed_IsbL-0650_RLatLon0.09_PT020H.grib2 2026-04-25 20:46 615K
20260425T18Z_MSC_RDPS_WindSpeed_IsbL-0700_RLatLon0.09_PT020H.grib2 2026-04-25 20:46 681K
20260425T18Z_MSC_RDPS_WindSpeed_IsbL-0750_RLatLon0.09_PT020H.grib2 2026-04-25 20:46 710K
20260425T18Z_MSC_RDPS_WindSpeed_IsbL-0800_RLatLon0.09_PT020H.grib2 2026-04-25 20:46 762K
20260425T18Z_MSC_RDPS_WindSpeed_IsbL-0850_RLatLon0.09_PT020H.grib2 2026-04-25 20:46 819K
20260425T18Z_MSC_RDPS_WindSpeed_IsbL-0875_RLatLon0.09_PT020H.grib2 2026-04-25 20:46 840K
20260425T18Z_MSC_RDPS_WindSpeed_IsbL-0900_RLatLon0.09_PT020H.grib2 2026-04-25 20:46 854K
20260425T18Z_MSC_RDPS_WindSpeed_IsbL-0925_RLatLon0.09_PT020H.grib2 2026-04-25 20:46 864K
20260425T18Z_MSC_RDPS_WindSpeed_IsbL-0950_RLatLon0.09_PT020H.grib2 2026-04-25 20:46 865K
20260425T18Z_MSC_RDPS_WindSpeed_IsbL-0970_RLatLon0.09_PT020H.grib2 2026-04-25 20:46 863K
20260425T18Z_MSC_RDPS_WindSpeed_IsbL-0985_RLatLon0.09_PT020H.grib2 2026-04-25 20:46 858K
20260425T18Z_MSC_RDPS_WindSpeed_IsbL-1000_RLatLon0.09_PT020H.grib2 2026-04-25 20:46 858K
20260425T18Z_MSC_RDPS_WindSpeed_IsbL-1015_RLatLon0.09_PT020H.grib2 2026-04-25 20:46 852K
20260425T18Z_MSC_RDPS_WindU_AGL-10m_RLatLon0.09_PT020H.grib2 2026-04-25 20:46 438K
20260425T18Z_MSC_RDPS_WindU_AGL-120m_RLatLon0.09_PT020H.grib2 2026-04-25 20:46 423K
20260425T18Z_MSC_RDPS_WindU_AGL-40m_RLatLon0.09_PT020H.grib2 2026-04-25 20:46 544K
20260425T18Z_MSC_RDPS_WindU_AGL-80m_RLatLon0.09_PT020H.grib2 2026-04-25 20:46 424K
20260425T18Z_MSC_RDPS_WindU_IsbL-0001_RLatLon0.09_PT020H.grib2 2026-04-25 20:46 292K
20260425T18Z_MSC_RDPS_WindU_IsbL-0005_RLatLon0.09_PT020H.grib2 2026-04-25 20:46 291K
20260425T18Z_MSC_RDPS_WindU_IsbL-0010_RLatLon0.09_PT020H.grib2 2026-04-25 20:46 347K
20260425T18Z_MSC_RDPS_WindU_IsbL-0020_RLatLon0.09_PT020H.grib2 2026-04-25 20:46 364K
20260425T18Z_MSC_RDPS_WindU_IsbL-0030_RLatLon0.09_PT020H.grib2 2026-04-25 20:46 364K
20260425T18Z_MSC_RDPS_WindU_IsbL-0050_RLatLon0.09_PT020H.grib2 2026-04-25 20:46 365K
20260425T18Z_MSC_RDPS_WindU_IsbL-0100_RLatLon0.09_PT020H.grib2 2026-04-25 20:46 337K
20260425T18Z_MSC_RDPS_WindU_IsbL-0150_RLatLon0.09_PT020H.grib2 2026-04-25 20:46 395K
20260425T18Z_MSC_RDPS_WindU_IsbL-0175_RLatLon0.09_PT020H.grib2 2026-04-25 20:46 420K
20260425T18Z_MSC_RDPS_WindU_IsbL-0200_RLatLon0.09_PT020H.grib2 2026-04-25 20:46 436K
20260425T18Z_MSC_RDPS_WindU_IsbL-0225_RLatLon0.09_PT020H.grib2 2026-04-25 20:46 343K
20260425T18Z_MSC_RDPS_WindU_IsbL-0250_RLatLon0.09_PT020H.grib2 2026-04-25 20:46 345K
20260425T18Z_MSC_RDPS_WindU_IsbL-0275_RLatLon0.09_PT020H.grib2 2026-04-25 20:46 361K
20260425T18Z_MSC_RDPS_WindU_IsbL-0300_RLatLon0.09_PT020H.grib2 2026-04-25 20:46 357K
20260425T18Z_MSC_RDPS_WindU_IsbL-0350_RLatLon0.09_PT020H.grib2 2026-04-25 20:46 366K
20260425T18Z_MSC_RDPS_WindU_IsbL-0400_RLatLon0.09_PT020H.grib2 2026-04-25 20:46 468K
20260425T18Z_MSC_RDPS_WindU_IsbL-0450_RLatLon0.09_PT020H.grib2 2026-04-25 20:46 467K
20260425T18Z_MSC_RDPS_WindU_IsbL-0500_RLatLon0.09_PT020H.grib2 2026-04-25 20:46 468K
20260425T18Z_MSC_RDPS_WindU_IsbL-0550_RLatLon0.09_PT020H.grib2 2026-04-25 20:46 471K
20260425T18Z_MSC_RDPS_WindU_IsbL-0600_RLatLon0.09_PT020H.grib2 2026-04-25 20:46 480K
20260425T18Z_MSC_RDPS_WindU_IsbL-0650_RLatLon0.09_PT020H.grib2 2026-04-25 20:46 500K
20260425T18Z_MSC_RDPS_WindU_IsbL-0700_RLatLon0.09_PT020H.grib2 2026-04-25 20:46 505K
20260425T18Z_MSC_RDPS_WindU_IsbL-0750_RLatLon0.09_PT020H.grib2 2026-04-25 20:46 531K
20260425T18Z_MSC_RDPS_WindU_IsbL-0800_RLatLon0.09_PT020H.grib2 2026-04-25 20:46 576K
20260425T18Z_MSC_RDPS_WindU_IsbL-0850_RLatLon0.09_PT020H.grib2 2026-04-25 20:46 626K
20260425T18Z_MSC_RDPS_WindU_IsbL-0875_RLatLon0.09_PT020H.grib2 2026-04-25 20:46 644K
20260425T18Z_MSC_RDPS_WindU_IsbL-0900_RLatLon0.09_PT020H.grib2 2026-04-25 20:46 654K
20260425T18Z_MSC_RDPS_WindU_IsbL-0925_RLatLon0.09_PT020H.grib2 2026-04-25 20:46 660K
20260425T18Z_MSC_RDPS_WindU_IsbL-0950_RLatLon0.09_PT020H.grib2 2026-04-25 20:46 657K
20260425T18Z_MSC_RDPS_WindU_IsbL-0970_RLatLon0.09_PT020H.grib2 2026-04-25 20:46 654K
20260425T18Z_MSC_RDPS_WindU_IsbL-0985_RLatLon0.09_PT020H.grib2 2026-04-25 20:46 794K
20260425T18Z_MSC_RDPS_WindU_IsbL-1000_RLatLon0.09_PT020H.grib2 2026-04-25 20:46 795K
20260425T18Z_MSC_RDPS_WindU_IsbL-1015_RLatLon0.09_PT020H.grib2 2026-04-25 20:46 791K
20260425T18Z_MSC_RDPS_WindV_AGL-10m_RLatLon0.09_PT020H.grib2 2026-04-25 20:46 436K
20260425T18Z_MSC_RDPS_WindV_AGL-120m_RLatLon0.09_PT020H.grib2 2026-04-25 20:46 423K
20260425T18Z_MSC_RDPS_WindV_AGL-40m_RLatLon0.09_PT020H.grib2 2026-04-25 20:46 424K
20260425T18Z_MSC_RDPS_WindV_AGL-80m_RLatLon0.09_PT020H.grib2 2026-04-25 20:46 423K
20260425T18Z_MSC_RDPS_WindV_IsbL-0001_RLatLon0.09_PT020H.grib2 2026-04-25 20:46 266K
20260425T18Z_MSC_RDPS_WindV_IsbL-0005_RLatLon0.09_PT020H.grib2 2026-04-25 20:46 332K
20260425T18Z_MSC_RDPS_WindV_IsbL-0010_RLatLon0.09_PT020H.grib2 2026-04-25 20:46 306K
20260425T18Z_MSC_RDPS_WindV_IsbL-0020_RLatLon0.09_PT020H.grib2 2026-04-25 20:46 364K
20260425T18Z_MSC_RDPS_WindV_IsbL-0030_RLatLon0.09_PT020H.grib2 2026-04-25 20:46 325K
20260425T18Z_MSC_RDPS_WindV_IsbL-0050_RLatLon0.09_PT020H.grib2 2026-04-25 20:46 393K
20260425T18Z_MSC_RDPS_WindV_IsbL-0100_RLatLon0.09_PT020H.grib2 2026-04-25 20:46 332K
20260425T18Z_MSC_RDPS_WindV_IsbL-0150_RLatLon0.09_PT020H.grib2 2026-04-25 20:46 392K
20260425T18Z_MSC_RDPS_WindV_IsbL-0175_RLatLon0.09_PT020H.grib2 2026-04-25 20:46 417K
20260425T18Z_MSC_RDPS_WindV_IsbL-0200_RLatLon0.09_PT020H.grib2 2026-04-25 20:46 433K
20260425T18Z_MSC_RDPS_WindV_IsbL-0225_RLatLon0.09_PT020H.grib2 2026-04-25 20:46 340K
20260425T18Z_MSC_RDPS_WindV_IsbL-0250_RLatLon0.09_PT020H.grib2 2026-04-25 20:46 342K
20260425T18Z_MSC_RDPS_WindV_IsbL-0275_RLatLon0.09_PT020H.grib2 2026-04-25 20:46 382K
20260425T18Z_MSC_RDPS_WindV_IsbL-0300_RLatLon0.09_PT020H.grib2 2026-04-25 20:46 379K
20260425T18Z_MSC_RDPS_WindV_IsbL-0350_RLatLon0.09_PT020H.grib2 2026-04-25 20:46 361K
20260425T18Z_MSC_RDPS_WindV_IsbL-0400_RLatLon0.09_PT020H.grib2 2026-04-25 20:46 361K
20260425T18Z_MSC_RDPS_WindV_IsbL-0450_RLatLon0.09_PT020H.grib2 2026-04-25 20:46 360K
20260425T18Z_MSC_RDPS_WindV_IsbL-0500_RLatLon0.09_PT020H.grib2 2026-04-25 20:46 360K
20260425T18Z_MSC_RDPS_WindV_IsbL-0550_RLatLon0.09_PT020H.grib2 2026-04-25 20:46 465K
20260425T18Z_MSC_RDPS_WindV_IsbL-0600_RLatLon0.09_PT020H.grib2 2026-04-25 20:46 475K
20260425T18Z_MSC_RDPS_WindV_IsbL-0650_RLatLon0.09_PT020H.grib2 2026-04-25 20:46 495K
20260425T18Z_MSC_RDPS_WindV_IsbL-0700_RLatLon0.09_PT020H.grib2 2026-04-25 20:46 515K
20260425T18Z_MSC_RDPS_WindV_IsbL-0750_RLatLon0.09_PT020H.grib2 2026-04-25 20:46 539K
20260425T18Z_MSC_RDPS_WindV_IsbL-0800_RLatLon0.09_PT020H.grib2 2026-04-25 20:46 571K
20260425T18Z_MSC_RDPS_WindV_IsbL-0850_RLatLon0.09_PT020H.grib2 2026-04-25 20:46 620K
20260425T18Z_MSC_RDPS_WindV_IsbL-0875_RLatLon0.09_PT020H.grib2 2026-04-25 20:46 638K
20260425T18Z_MSC_RDPS_WindV_IsbL-0900_RLatLon0.09_PT020H.grib2 2026-04-25 20:46 650K
20260425T18Z_MSC_RDPS_WindV_IsbL-0925_RLatLon0.09_PT020H.grib2 2026-04-25 20:46 663K
20260425T18Z_MSC_RDPS_WindV_IsbL-0950_RLatLon0.09_PT020H.grib2 2026-04-25 20:46 661K
20260425T18Z_MSC_RDPS_WindV_IsbL-0970_RLatLon0.09_PT020H.grib2 2026-04-25 20:46 654K
20260425T18Z_MSC_RDPS_WindV_IsbL-0985_RLatLon0.09_PT020H.grib2 2026-04-25 20:46 654K
20260425T18Z_MSC_RDPS_WindV_IsbL-1000_RLatLon0.09_PT020H.grib2 2026-04-25 20:46 653K
20260425T18Z_MSC_RDPS_WindV_IsbL-1015_RLatLon0.09_PT020H.grib2 2026-04-25 20:46 788K